Tracking 27422 objects as of 31-May-2023
HD Live streaming from Space Station
objects crossing your sky now

STARLINK-5244

Track STARLINK-5244 now!
10-day predictions
STARLINK-5244 is classified as:


NORAD ID: 54199
Int'l Code: 2022-141AU
Perigee: 546.1 km
Apogee: 547.6 km
Inclination: 53.2 °
Period: 95.4 minutes
Semi major axis: 6917 km
RCS: Unknown
Launch date: October 28, 2022
Source: United States (US)
Launch site: AIR FORCE WESTERN TEST RANGE (AFWTR)
Your satellite tracking list
Your tracking list is empty




NASA's NSSDC Master Catalog

Two Line Element Set (TLE):
1 54199U 22141AU  23150.58516741 -.00001906  00000-0 -10170-3 0  9996
2 54199  53.2163 226.5370 0001084  85.6898 274.4218 15.08846569 33132
Source of the keplerian elements: AFSPC